Waarnemingen

Advertentie
Mijn weer
Spa/La Sauveniere, België (6490): temperatuur & dauwpunt: 05.12.2017 04:00:00 - 11.12.2017 04:00:00 (CET)Spa/La Sauveniere, België (6490): windsnelheid & windstoten: 05.12.2017 04:00:00 - 11.12.2017 04:00:00 (CET)Spa/La Sauveniere, België (6490): windrichting: 05.12.2017 04:00:00 - 11.12.2017 04:00:00 (CET)Spa/La Sauveniere, België (6490): luchtdruk: 05.12.2017 04:00:00 - 11.12.2017 04:00:00 (CET)Spa/La Sauveniere, België (6490): zicht: 05.12.2017 04:00:00 - 11.12.2017 04:00:00 (CET)
Datum & Tijd tt [°C] td [°C] ff [km/u] ff [kn] fx [km/u] fx [kn] dd ppp [hPa] vv [km]
11.12.2017 04:00:00 3,0 2,4 11 6 - - Z 984,8 15
11.12.2017 03:00:00 3,1 0,6 7 4 18 10 WZW 984,1 11
11.12.2017 02:00:00 3,3 0,5 7 4 32 18 WZW 984,0 17
11.12.2017 01:00:00 3,5 1,2 14 8 - - WZW 984,3 19
11.12.2017 00:00:00 3,5 1,4 18 10 54 29 WZW 982,9 12
10.12.2017 23:00:00 4,0 1,5 29 16 54 29 WZW 981,9 23
10.12.2017 22:00:00 4,3 1,3 29 16 - - WZW 980,8 27
10.12.2017 21:00:00 4,2 1,4 36 19 65 35 WZW 979,5 21
10.12.2017 20:00:00 4,2 2,2 40 21 65 35 ZW 978,8 10
10.12.2017 19:00:00 4,1 1,8 40 21 - - ZW 978,4 11
10.12.2017 18:00:00 3,8 1,5 32 18 58 31 ZZW 978,1 10
10.12.2017 17:00:00 4,1 1,1 36 19 65 35 ZW 978,4 12
10.12.2017 16:00:00 3,5 1,6 36 19 - - ZW 978,6 8
10.12.2017 15:00:00 2,1 0,2 32 18 50 27 ZW 979,3 7
10.12.2017 14:00:00 -0,5 -3,3 29 16 61 33 Z 980,4 8
10.12.2017 13:00:00 -1,9 -4,1 40 21 - - Z 980,5 0,6
10.12.2017 12:00:00 -2,7 -4,8 40 21 61 33 ZZO 982,0 0,3
10.12.2017 11:00:00 -2,4 -5,5 32 18 58 31 ZZO 985,1 0,7
10.12.2017 10:00:00 -2,0 -5,4 32 18 - - ZZO 989,2 0,7
10.12.2017 09:00:00 -1,5 -5,7 25 14 47 25 ZZO 993,0 2,2
10.12.2017 08:00:00 -1,1 -4,7 25 14 47 25 Z 995,6 10
10.12.2017 07:00:00 -1,0 -4,3 29 16 - - Z 998,0 22
10.12.2017 06:00:00 -1,0 -4,6 25 14 43 23 Z 1000,6 19
10.12.2017 05:00:00 -1,2 -4,7 22 12 40 21 ZZW 1002,9 17
10.12.2017 04:00:00 -1,4 -5,1 22 12 - - Z 1004,5 9
10.12.2017 03:00:00 -1,4 -5,3 18 10 36 19 ZZW 1006,2 13
10.12.2017 02:00:00 -1,5 -5,7 14 8 36 19 ZZW 1007,6 12
10.12.2017 01:00:00 -1,3 -5,0 18 10 - - ZZW 1008,8 12
10.12.2017 00:00:00 -1,5 -6,6 18 10 32 18 ZZW 1010,1 4,2
09.12.2017 23:00:00 -1,1 -5,8 22 12 36 19 ZW 1011,0 30
09.12.2017 22:00:00 -1,4 -6,1 22 12 - - ZW 1012,1 3,0
09.12.2017 21:00:00 -1,2 -5,6 25 14 43 23 ZW 1012,9 21
09.12.2017 20:00:00 -1,6 -6,6 22 12 36 19 ZW 1013,5 26
09.12.2017 19:00:00 -1,7 -5,7 22 12 - - ZW 1014,1 30
09.12.2017 18:00:00 -1,8 -6,3 18 10 40 21 ZW 1014,5 30
09.12.2017 17:00:00 -1,9 -7,4 18 10 29 16 ZW 1015,1 30
09.12.2017 16:00:00 -1,5 -5,9 14 8 - - WZW 1015,4 35
09.12.2017 15:00:00 -1,6 -6,6 18 10 32 18 WZW 1015,6 23
09.12.2017 14:00:00 -1,6 -5,4 18 10 36 19 W 1016,1 16
09.12.2017 13:00:00 -1,9 -6,1 18 10 - - W 1016,2 12
09.12.2017 12:00:00 -2,1 -4,5 18 10 32 18 W 1016,5 7
09.12.2017 11:00:00 -2,1 -6,1 18 10 36 19 WZW 1016,4 12
09.12.2017 10:00:00 -2,5 -5,8 18 10 - - W 1016,5 10
09.12.2017 09:00:00 -2,6 -4,9 18 10 40 21 W 1016,1 11
09.12.2017 08:00:00 -2,6 -6,1 14 8 36 19 WZW 1016,0 15
09.12.2017 07:00:00 -2,8 -6,3 14 8 - - W 1016,2 9
09.12.2017 06:00:00 -2,8 -6,9 14 8 29 16 W 1015,8 10
09.12.2017 05:00:00 -2,8 -6,6 14 8 29 16 W 1015,6 11
09.12.2017 04:00:00 -2,8 -7,0 14 8 - - W 1015,8 11
09.12.2017 03:00:00 -2,9 -5,9 11 6 29 16 W 1015,6 12
09.12.2017 02:00:00 -2,5 -6,0 14 8 29 16 W 1015,3 18
09.12.2017 01:00:00 -2,2 -6,4 14 8 - - W 1015,3 24
09.12.2017 00:00:00 -1,8 -5,3 18 10 32 18 W 1015,0 22
08.12.2017 23:00:00 -1,7 -5,8 18 10 36 19 W 1014,9 25
08.12.2017 22:00:00 -1,6 -6,2 18 10 - - W 1014,6 20
08.12.2017 21:00:00 -1,6 -4,1 18 10 32 18 W 1014,5 13
08.12.2017 20:00:00 -1,4 -5,1 18 10 32 18 W 1014,3 19
08.12.2017 19:00:00 -1,0 -4,5 14 8 - - W 1014,1 25
08.12.2017 18:00:00 -0,9 -4,9 11 6 22 12 W 1013,5 17
08.12.2017 17:00:00 -1,0 -3,1 14 8 40 21 W 1013,2 9
08.12.2017 16:00:00 0,1 -3,7 14 8 - - W 1012,6 20
08.12.2017 15:00:00 0,1 -4,2 18 10 36 19 WNW 1012,3 21
08.12.2017 14:00:00 -0,6 -3,1 18 10 36 19 W 1012,0 8
08.12.2017 13:00:00 -0,1 -3,6 18 10 - - WZW 1011,6 5
08.12.2017 12:00:00 0,1 -4,0 18 10 43 23 W 1011,9 16
08.12.2017 11:00:00 0,1 -2,3 22 12 43 23 W 1012,0 15
08.12.2017 10:00:00 0,2 -3,7 18 10 - - W 1011,5 16
08.12.2017 09:00:00 0,1 -4,5 14 8 25 14 WZW 1011,3 18
08.12.2017 08:00:00 0,1 -2,8 14 8 36 19 WZW 1011,2 12
08.12.2017 07:00:00 0,8 -2,4 14 8 - - W 1011,3 -
08.12.2017 06:00:00 1,3 -1,2 18 10 40 21 W 1011,4 -
08.12.2017 05:00:00 1,7 0,5 18 10 40 21 W 1011,3 -
08.12.2017 04:00:00 2,4 0,9 18 10 - - W 1011,2 -
08.12.2017 03:00:00 2,7 1,4 18 10 32 18 W 1011,1 -
08.12.2017 02:00:00 2,9 1,0 14 8 36 19 WNW 1010,7 -
08.12.2017 01:00:00 3,3 2,2 14 8 - - WNW 1010,4 -
08.12.2017 00:00:00 3,7 2,7 14 8 40 21 WNW 1010,0 -
07.12.2017 23:00:00 4,7 4,3 22 12 43 23 W 1008,9 3,6
07.12.2017 22:00:00 5,0 3,8 25 14 - - ZW 1008,6 4,6
07.12.2017 21:00:00 4,8 3,8 25 14 54 29 ZW 1008,5 4,0
07.12.2017 20:00:00 4,3 3,0 25 14 50 27 ZZW 1008,9 6
07.12.2017 19:00:00 3,7 2,5 32 18 - - Z 1009,6 3,5
07.12.2017 18:00:00 3,4 2,2 36 19 58 31 Z 1010,6 11
07.12.2017 17:00:00 2,7 1,9 36 19 68 37 Z 1011,9 5
07.12.2017 16:00:00 2,5 1,5 32 18 - - Z 1013,0 3,3
07.12.2017 15:00:00 1,7 -1,1 32 18 58 31 Z 1014,4 3,1
07.12.2017 14:00:00 1,3 -0,5 29 16 58 31 Z 1015,7 2,3
07.12.2017 13:00:00 1,0 -2,5 25 14 - - Z 1017,3 -
07.12.2017 12:00:00 0,6 -1,4 25 14 43 23 Z 1018,5 5
07.12.2017 11:00:00 0,1 -3,3 22 12 47 25 Z 1020,3 5
07.12.2017 10:00:00 -0,5 -2,8 29 16 - - Z 1020,5 -
07.12.2017 09:00:00 -0,6 -4,6 22 12 43 23 ZW 1021,9 9
07.12.2017 08:00:00 -0,7 -4,1 18 10 40 21 ZW 1022,1 10
07.12.2017 07:00:00 -0,8 -4,7 22 12 - - ZZW 1022,0 13
07.12.2017 06:00:00 -0,4 -4,1 18 10 36 19 ZZW 1022,6 18
07.12.2017 05:00:00 0,7 -0,5 11 6 25 14 ZZW 1023,2 10
07.12.2017 04:00:00 1,1 -4,2 11 6 - - ZZW 1024,0 15
07.12.2017 03:00:00 1,4 -2,6 14 8 29 16 ZZW 1024,8 21
07.12.2017 02:00:00 1,5 -1,1 11 6 25 14 ZZW 1025,6 30
07.12.2017 01:00:00 1,9 -1,7 11 6 - - ZW 1026,6 27
07.12.2017 00:00:00 2,2 -1,2 11 6 25 14 ZW 1027,3 24
06.12.2017 23:00:00 2,5 -0,8 14 8 25 14 ZW 1028,0 21
06.12.2017 22:00:00 2,8 -0,5 14 8 - - ZZW 1028,8 21
06.12.2017 21:00:00 3,2 0,0 11 6 22 12 ZZW 1029,5 23
06.12.2017 20:00:00 3,4 0,4 14 8 22 12 ZZW 1029,8 16
06.12.2017 19:00:00 3,8 0,7 14 8 - - ZZW 1030,2 16
06.12.2017 18:00:00 3,9 0,7 11 6 25 14 ZZW 1030,4 15
06.12.2017 17:00:00 4,2 0,9 14 8 25 14 ZW 1030,9 17
06.12.2017 16:00:00 4,4 1,1 11 6 - - ZW 1031,0 17
06.12.2017 15:00:00 4,6 0,9 14 8 25 14 WZW 1031,3 26
06.12.2017 14:00:00 4,7 1,0 14 8 25 14 WZW 1031,8 29
06.12.2017 13:00:00 4,8 1,1 11 6 - - WZW 1032,3 30
06.12.2017 12:00:00 4,5 1,3 11 6 22 12 W 1032,9 29
06.12.2017 11:00:00 4,5 1,3 11 6 22 12 W 1033,2 40
06.12.2017 10:00:00 4,3 1,1 14 8 - - WZW 1033,2 40
06.12.2017 09:00:00 4,0 1,3 11 6 22 12 W 1033,4 30
06.12.2017 08:00:00 3,9 1,0 11 6 22 12 WZW 1033,4 30
06.12.2017 07:00:00 3,8 1,1 11 6 - - W 1033,6 24
06.12.2017 06:00:00 3,4 0,9 11 6 22 12 WZW 1034,0 18
06.12.2017 05:00:00 3,1 1,5 11 6 29 16 W 1034,5 -
06.12.2017 04:00:00 3,0 1,3 11 6 - - W 1034,6 -
06.12.2017 03:00:00 3,0 0,9 11 6 25 14 W 1035,1 9
06.12.2017 02:00:00 3,0 1,0 14 8 29 16 W 1035,1 13
06.12.2017 01:00:00 2,9 1,6 14 8 - - W 1035,2 9
06.12.2017 00:00:00 2,9 1,4 14 8 22 12 WZW 1035,2 13
05.12.2017 23:00:00 2,9 0,3 14 8 25 14 WZW 1035,5 13
05.12.2017 22:00:00 2,9 0,2 7 4 - - WZW 1035,9 21
05.12.2017 21:00:00 2,9 0,1 7 4 18 10 WZW 1035,9 17
05.12.2017 20:00:00 3,0 0,2 7 4 22 12 WZW 1036,2 15
05.12.2017 19:00:00 3,0 0,0 11 6 - - WZW 1036,2 12
05.12.2017 18:00:00 3,0 3,0 11 6 18 10 WZW 1036,2 5
05.12.2017 17:00:00 3,0 0,7 11 6 22 12 WZW 1036,2 -
05.12.2017 16:00:00 3,1 0,3 11 6 - - WZW 1036,2 -
05.12.2017 15:00:00 3,0 2,0 11 6 18 10 W 1036,0 -
05.12.2017 14:00:00 3,0 0,7 11 6 22 12 WZW 1036,3 -
05.12.2017 13:00:00 2,9 1,9 11 6 - - W 1036,6 5
05.12.2017 12:00:00 2,7 1,5 14 8 25 14 W 1036,7 2,2
05.12.2017 11:00:00 2,6 2,1 14 8 29 16 W 1037,0 0,3
05.12.2017 10:00:00 2,6 1,3 14 8 - - W 1036,8 1,7
05.12.2017 09:00:00 2,4 0,6 14 8 22 12 WZW 1036,7 0,4
05.12.2017 08:00:00 2,3 2,1 11 6 22 12 WZW 1036,4 5
05.12.2017 07:00:00 2,5 -0,1 7 4 - - WZW 1035,9 -
05.12.2017 06:00:00 2,1 -0,6 7 4 18 10 ZW 1036,1 -
05.12.2017 05:00:00 2,0 0,5 11 6 22 12 ZZW 1035,8 -
05.12.2017 04:00:00 2,0 -0,2 11 6 - - W 1036,2 3,4

tt = temperatuur
td = dauwpunt
ff = windsnelheid
fx = windstoten
dd = windrichting
ppp = luchtdruk
vv = zicht

Weerstations in de omgeving